This is the latest recevied weather packets stored in our database for station/object KC9DNQ-3. If no packets are shown the sender has not sent any weather packets the latest 10 day(s).
| Time | Temp. | Humidity | Pressure | Rain* | Wind** | Luminosity | Snow |
|---|---|---|---|---|---|---|---|
| 1778181910 | 10.56° C | 76% | 1012.1 hPa | 0.51 mm | - | 352 W/m² | - |
| 1778181610 | 10.56° C | 77% | 1012.3 hPa | 0.51 mm | - | 302 W/m² | - |
| 1778181309 | 10° C | 76% | 1012.3 hPa | 0.51 mm | - | 308 W/m² | - |
| 1778181010 | 10° C | 78% | 1012.3 hPa | 0.51 mm | - | 218 W/m² | - |
| 1778180709 | 10° C | 78% | 1012.4 hPa | 0.51 mm | - | 207 W/m² | - |
| 1778180410 | 10° C | 76% | 1012.4 hPa | 0.51 mm | - | 213 W/m² | - |
| 1778180110 | 10.56° C | 76% | 1012.6 hPa | 0.25 mm | - | 186 W/m² | - |
| 1778179809 | 10.56° C | 71% | 1012.6 hPa | 0.25 mm | - | 148 W/m² | - |
| 1778179510 | 11.11° C | 67% | 1012.6 hPa | 0 mm | - | 116 W/m² | - |
| 1778179210 | 11.67° C | 66% | 1012.6 hPa | 0 mm | - | 102 W/m² | - |
| 1778178911 | 11.67° C | 65% | 1012.5 hPa | 0 mm | - | 153 W/m² | - |
| 1778178610 | 11.67° C | 65% | 1012.5 hPa | 0 mm | - | 158 W/m² | - |
| 1778178310 | 11.67° C | 67% | 1012.5 hPa | 0 mm | - | 132 W/m² | - |
| 1778178010 | 11.67° C | 67% | 1012.5 hPa | 0 mm | - | 163 W/m² | - |
| 1778177710 | 11.67° C | 66% | 1012.5 hPa | 0 mm | - | 301 W/m² | - |
| 1778177410 | 11.67° C | 64% | 1012.5 hPa | 0 mm | - | 244 W/m² | - |
| 1778177110 | 11.67° C | 63% | 1012.5 hPa | 0 mm | - | 104 W/m² | - |
| 1778176811 | 11.67° C | 58% | 1012.7 hPa | 0 mm | - | 172 W/m² | - |
| 1778176509 | 12.22° C | 59% | 1012.7 hPa | 0 mm | - | 179 W/m² | - |
| 1778176210 | 12.78° C | 56% | 1012.7 hPa | 0 mm | - | 294 W/m² | - |
| 1778175910 | 13.33° C | 52% | 1012.7 hPa | 0 mm | - | 272 W/m² | - |
| 1778175610 | 13.89° C | 46% | 1012.7 hPa | 0 mm | - | 246 W/m² | - |
| 1778175310 | 13.89° C | 44% | 1012.7 hPa | 0 mm | - | 274 W/m² | - |
| 1778175010 | 13.89° C | 44% | 1012.7 hPa | 0 mm | - | 290 W/m² | - |
| 1778174709 | 13.89° C | 45% | 1012.6 hPa | 0 mm | - | 283 W/m² | - |
* Rain latest hour (hover to see other rain measurements)
** Current wind speed in m/s (hover to see current wind gust speed)